Flag for Germany Weather past 2 weeks in Seelze, Lower Saxony, Germany

39 °F

Passing clouds.

Feels Like: 33 °F
Forecast: 41 / 51 °F
Wind: 9 mph from Southwest

Location: Hannover

Current Time: Nov 28, 2015 at 7:28:39 PM

Latest Report: Nov 28, 2015 at 6:50 PM

Visibility: N/A

Pressure: 29.89 "Hg

Humidity: 81%

Dew point: 34 °F

Location of SeelzeLocation

Historic Weather in Seelze — Graph


Seelze temperature yesterday

Maximum temperature yesterday: 43 °F (at 11:50 AM)
Minimum temperature yesterday: 32 °F (at 1:20 AM)
Average temperature yesterday: 37 °F

Past Weeks' High & Low Weather Summary

High59 °F (Nov 17, 11:20 PM)100% (Nov 14, 9:20 PM)30.21 "Hg (Nov 14, 9:20 PM)
Low32 °F (Nov 21, 11:50 PM)62% (Nov 13, 6:20 PM)29.33 "Hg (Nov 21, 5:20 AM)
Average44 °F88%29.79 "Hg
* Reported Nov 13 6:20 PM — Nov 28 6:20 PM, Seelze, Weather by CustomWeather, © 2015

Note: Actual official high and low records may vary slightly from our data, if they occured in-between our weather recording intervals... More about our weather records


Seelze weather history for previous 24 hours

Time TempWeatherWind HumidityBarometerVisibility
6:20 PM
Sat, Nov 28
41 °FPassing clouds.12 mph81%29.89 "HgN/A
5:50 PM41 °FPassing clouds.10 mph81%29.86 "HgN/A
5:20 PM41 °FPassing clouds.9 mph81%29.86 "HgN/A
4:50 PM41 °FPassing clouds.10 mph81%29.86 "HgN/A
4:20 PM43 °FPassing clouds.12 mph76%29.86 "HgN/A
3:50 PM43 °FPassing clouds.12 mph76%29.86 "HgN/A
3:20 PM45 °FScattered clouds.12 mph71%29.83 "HgN/A
2:50 PM45 °FPassing clouds.16 mph76%29.83 "HgN/A
2:20 PM45 °FScattered clouds.17 mph76%29.83 "HgN/A
1:50 PM45 °FPassing clouds.17 mph76%29.80 "HgN/A
1:20 PM45 °FPassing clouds.16 mph81%29.80 "HgN/A
12:50 PM45 °FPassing clouds.16 mph81%29.77 "HgN/A
12:20 PM45 °FSunny.16 mph81%29.77 "Hg10 mi
11:50 AM43 °FBroken clouds.16 mph93%29.74 "HgN/A
11:20 AM43 °FPartly sunny.15 mph93%29.74 "HgN/A
10:50 AM43 °FLight rain. Partly sunny.16 mph93%29.74 "HgN/A
10:20 AM41 °FLight rain. Partly sunny.14 mph100%29.71 "HgN/A
9:50 AM41 °FLight rain. Broken clouds.16 mph93%29.71 "HgN/A
9:20 AM41 °FLight rain. Partly sunny.15 mph93%29.68 "HgN/A
8:50 AM39 °FLight rain. Partly sunny.10 mph93%29.65 "HgN/A
7:20 AM37 °FLight rain. Passing clouds.10 mph93%29.62 "HgN/A
6:50 AM37 °FPassing clouds.14 mph87%29.62 "HgN/A
6:20 AM37 °FPassing clouds.12 mph87%29.62 "HgN/A
5:50 AM37 °FPassing clouds.17 mph87%29.62 "HgN/A
5:20 AM37 °FPassing clouds.15 mph87%29.65 "HgN/A
4:50 AM37 °FPassing clouds.17 mph81%29.65 "HgN/A
4:20 AM37 °FPassing clouds.18 mph81%29.65 "HgN/A
3:50 AM37 °FPassing clouds.13 mph81%29.65 "HgN/A
3:20 AM37 °FPartly cloudy.13 mph81%29.68 "HgN/A
2:50 AM36 °FPassing clouds.14 mph87%29.71 "HgN/A
2:20 AM36 °FPassing clouds.16 mph87%29.71 "HgN/A
12:50 AM36 °FPassing clouds.14 mph87%29.77 "HgN/A
12:20 AM36 °FPassing clouds.15 mph87%29.77 "HgN/A
11:50 PM
Fri, Nov 27
36 °FPassing clouds.15 mph87%29.80 "HgN/A
11:20 PM36 °FPassing clouds.13 mph87%29.80 "HgN/A
10:50 PM36 °FPassing clouds.14 mph87%29.80 "HgN/A
10:20 PM36 °FPassing clouds.16 mph87%29.83 "HgN/A
9:50 PM36 °FPassing clouds.15 mph87%29.83 "HgN/A
9:20 PM34 °FClear.13 mph93%29.86 "Hg10 mi
8:50 PM36 °FClear.12 mph87%29.86 "Hg10 mi
8:20 PM36 °FClear.9 mph87%29.86 "Hg10 mi
7:50 PM36 °FClear.13 mph87%29.89 "Hg10 mi
7:20 PM36 °FClear.13 mph87%29.89 "Hg10 mi
Weather by CustomWeather, © 2015

See weather overviewHow to use our weather pages